TimeAKDT,TemperatureF,Dew PointF,Humidity,Sea Level PressureIn,VisibilityMPH,Wind Direction,Wind SpeedMPH,Gust SpeedMPH,PrecipitationIn,Events,Conditions,WindDirDegrees,DateUTC
12:53 AM,37.9,27.0,65,30.27,10.0,NW,3.5,-,N/A,,Mostly Cloudy,310,2013-04-30 08:53:00
1:53 AM,36.0,27.0,70,30.29,10.0,NNW,3.5,-,N/A,,Scattered Clouds,330,2013-04-30 09:53:00
2:53 AM,36.0,27.0,70,30.31,10.0,NW,5.8,-,N/A,,Clear,320,2013-04-30 10:53:00
3:53 AM,34.0,26.1,73,30.31,10.0,NNW,3.5,-,N/A,,Clear,330,2013-04-30 11:53:00
4:53 AM,32.0,25.0,75,30.31,10.0,Calm,Calm,-,N/A,,Mostly Cloudy,0,2013-04-30 12:53:00
5:53 AM,34.0,25.0,70,30.31,10.0,North,3.5,-,N/A,,Mostly Cloudy,360,2013-04-30 13:53:00
6:53 AM,36.0,28.0,73,30.32,10.0,Calm,Calm,-,N/A,,Overcast,0,2013-04-30 14:53:00
7:53 AM,39.9,26.1,58,30.34,10.0,Calm,Calm,-,N/A,,Clear,0,2013-04-30 15:53:00
8:53 AM,42.1,25.0,51,30.35,10.0,WNW,3.5,-,N/A,,Overcast,300,2013-04-30 16:53:00
9:53 AM,41.0,19.9,43,30.35,10.0,Variable,3.5,-,N/A,,Overcast,0,2013-04-30 17:53:00
10:53 AM,45.0,23.0,42,30.36,10.0,WNW,4.6,-,N/A,,Overcast,290,2013-04-30 18:53:00
11:53 AM,44.1,21.9,42,30.37,10.0,Variable,4.6,-,N/A,,Overcast,0,2013-04-30 19:53:00
12:53 PM,46.0,25.0,44,30.37,10.0,Variable,6.9,-,N/A,,Overcast,0,2013-04-30 20:53:00
1:53 PM,44.1,27.0,51,30.38,10.0,SSE,9.2,-,N/A,,Mostly Cloudy,160,2013-04-30 21:53:00
2:53 PM,44.1,27.0,51,30.38,10.0,South,9.2,-,N/A,,Overcast,180,2013-04-30 22:53:00
3:53 PM,44.1,28.9,55,30.38,10.0,SW,8.1,-,N/A,,Overcast,220,2013-04-30 23:53:00
4:53 PM,44.1,28.9,55,30.38,10.0,SSW,4.6,-,N/A,,Overcast,200,2013-05-01 00:53:00
5:53 PM,43.0,33.1,68,30.39,10.0,Variable,6.9,-,N/A,,Overcast,0,2013-05-01 01:53:00
6:53 PM,41.0,33.1,73,30.39,10.0,Calm,Calm,-,0.00,,Overcast,0,2013-05-01 02:53:00
7:53 PM,42.1,32.0,67,30.39,10.0,SE,4.6,-,N/A,,Overcast,130,2013-05-01 03:53:00
8:07 PM,42.8,32.0,66,30.38,10.0,SSE,3.5,-,N/A,,Overcast,160,2013-05-01 04:07:00
8:53 PM,39.0,35.1,86,30.40,10.0,Variable,3.5,-,0.01,Rain,Light Rain,0,2013-05-01 04:53:00
9:19 PM,39.2,35.6,87,30.39,10.0,Calm,Calm,-,0.00,,Overcast,0,2013-05-01 05:19:00
9:53 PM,39.0,35.1,86,30.39,10.0,ESE,3.5,-,0.00,,Overcast,110,2013-05-01 05:53:00
10:17 PM,41.0,33.8,76,30.38,10.0,SE,8.1,-,N/A,,Overcast,140,2013-05-01 06:17:00
10:48 PM,41.0,33.8,76,30.38,10.0,ESE,6.9,-,N/A,,Overcast,120,2013-05-01 06:48:00
10:53 PM,41.0,34.0,76,30.38,10.0,SE,6.9,-,N/A,,Overcast,130,2013-05-01 06:53:00
11:00 PM,41.0,33.8,76,30.37,10.0,ESE,8.1,-,N/A,,Overcast,120,2013-05-01 07:00:00
11:53 PM,43.0,35.1,74,30.38,10.0,SE,10.4,-,N/A,,Overcast,140,2013-05-01 07:53:00